DW2465 Weather Reports


Display with metric or nautical units.
time (UTC)temp
F
wind
direction
speed
MPH
gust
MPH
rain 1hr
in
rain 24hr
in
rain mn
in
humidity
%
barometer
mb
20260510164604 52 305 0.0 0.0 0.00 0.00 0.00 47 1020.1
20260510163117 52 325 0.0 0.0 0.00 0.00 0.00 45 1020.0
20260510161544 52 338 0.0 0.0 0.00 0.00 0.00 48 1020.2
20260510160045 51 350 0.0 0.0 0.00 0.00 0.00 48 1020.0
20260510154541 51 287 0.0 0.0 0.00 0.00 0.00 48 1020.0
20260510153055 51 327 0.0 0.0 0.00 0.00 0.00 49 1019.8
20260510151536 50 315 0.0 0.0 0.00 0.00 0.00 49 1019.7
20260510150040 50 297 0.0 0.0 0.00 0.00 0.00 49 1019.7
20260510144541 49 299 0.0 0.0 0.00 0.00 0.00 51 1019.7
20260510143035 49 360 0.0 0.0 0.00 0.00 0.00 51 1019.7
20260510141525 49 26 0.0 0.0 0.00 0.00 0.00 52 1019.5
20260510140023 49 286 0.0 0.0 0.00 0.00 0.00 53 1019.4
20260510134521 48 309 0.0 0.0 0.00 0.00 0.00 55 1019.3
20260510133018 47 31 0.0 0.0 0.00 0.00 0.00 58 1019.3
20260510131523 46 360 0.0 0.0 0.00 0.00 0.00 62 1019.2
20260510130014 45 346 0.0 0.0 0.00 0.00 0.00 61 1019.2
20260510124520 45 345 0.0 0.0 0.00 0.00 0.00 63 1019.1
20260510123012 44 345 0.0 0.0 0.00 0.00 0.00 64 1019.0
20260510121511 43 345 0.0 0.0 0.00 0.00 0.00 64 1018.7
20260510120008 43 336 0.0 0.0 0.00 0.00 0.00 64 1018.6
20260510114502 43 303 0.0 0.0 0.00 0.00 0.00 62 1018.4
20260510113100 43 300 0.0 0.0 0.00 0.00 0.00 61 1018.2
20260510113000 43 302 0.0 0.0 0.00 0.00 0.00 62 1018.2
20260510111559 43 282 0.0 0.0 0.00 0.00 0.00 61 1017.9
20260510110029 43 279 0.0 0.0 0.00 0.00 0.00 60 1017.7
20260510104528 43 285 0.0 0.0 0.00 0.00 0.00 61 1017.5
20260510103053 43 284 0.0 0.0 0.00 0.00 0.00 60 1017.2
20260510101553 43 288 0.0 0.0 0.00 0.00 0.00 60 1017.0
20260510100107 43 289 0.0 0.0 0.00 0.00 0.00 61 1017.0
20260510094558 43 277 0.0 0.0 0.00 0.00 0.00 61 1016.6
20260510093042 43 279 0.0 0.0 0.00 0.00 0.00 60 1016.4
20260510091542 43 279 0.0 0.0 0.00 0.00 0.00 59 1016.3
20260510090046 44 267 0.0 0.0 0.00 0.00 0.00 58 1016.1
20260510084549 44 261 0.0 0.0 0.00 0.00 0.00 57 1016.1
20260510083033 44 273 0.0 0.0 0.00 0.00 0.00 59 1015.8
20260510081544 44 265 0.0 0.0 0.00 0.00 0.00 58 1015.6
20260510080012 44 265 0.0 0.0 0.00 0.00 0.00 59 1015.4
20260510074600 44 265 0.0 0.0 0.00 0.00 0.00 59 1015.3
20260510073027 45 268 0.0 0.0 0.00 0.00 0.00 56 1015.5
20260510071526 45 269 0.0 0.0 0.00 0.00 0.00 53 1015.3
20260510070056 46 273 0.0 0.0 0.00 0.00 0.00 52 1015.5
20260510064554 46 273 0.0 0.0 0.00 0.00 0.00 50 1015.5
20260510063021 46 285 0.0 0.0 0.00 0.00 0.00 50 1015.4
20260510061521 46 306 0.0 0.0 0.00 0.00 0.00 49 1015.4
20260510060053 47 306 0.0 0.0 0.00 0.00 0.00 49 1015.3
20260510054549 47 306 0.0 0.0 0.00 0.00 0.00 49 1015.2
20260510053042 47 306 0.0 0.0 0.00 0.00 0.00 50 1015.1
20260510051545 47 307 0.0 0.0 0.00 0.00 0.00 50 1015.0
20260510050040 47 308 0.0 0.0 0.00 0.00 0.00 47 1015.0
20260510044538 47 308 0.0 0.0 0.00 0.00 0.00 46 1014.9
20260510043032 48 308 0.0 0.0 0.00 0.00 0.00 44 1014.9
20260510041529 49 307 0.0 0.0 0.00 0.00 0.00 43 1014.9
20260510040026 49 260 0.0 0.0 0.00 0.00 0.00 42 1014.8
20260510034529 50 301 0.0 0.0 0.00 0.00 0.00 42 1014.7
20260510033132 50 302 0.0 0.0 0.00 0.00 0.00 41 1014.6
20260510031610 50 285 0.0 0.0 0.00 0.00 0.00 40 1014.3
20260510030056 51 296 0.0 0.0 0.00 0.00 0.00 40 1013.9
20260510024548 51 286 0.0 0.0 0.00 0.00 0.00 39 1013.7
20260510023045 51 302 0.0 0.0 0.00 0.00 0.00 38 1013.4
20260510021543 52 279 0.0 0.0 0.00 0.00 0.00 38 1013.0
20260510020043 53 302 0.0 0.0 0.00 0.00 0.00 37 1012.6
20260510014541 53 281 0.0 0.0 0.00 0.00 0.00 36 1012.5
20260510013032 54 304 0.0 0.0 0.00 0.00 0.00 35 1012.2
20260510011539 54 290 0.0 0.0 0.00 0.00 0.00 35 1011.8
20260510010027 55 279 0.0 0.0 0.00 0.00 0.00 34 1011.7
20260510004526 56 310 0.0 0.0 0.00 0.00 0.00 33 1011.5
20260510003026 56 284 0.0 0.0 0.00 0.00 0.00 32 1011.3
20260510001526 57 308 0.0 0.0 0.00 0.00 0.00 32 1011.1
20260510000018 57 317 0.0 0.0 0.00 0.00 0.00 33 1010.8
20260509234516 57 311 0.0 0.0 0.00 0.00 0.00 32 1010.7
20260509233014 57 266 0.0 0.0 0.00 0.00 0.00 30 1010.6
20260509231515 57 360 0.0 0.0 0.00 0.00 0.00 32 1010.5
20260509230010 58 324 0.0 0.0 0.00 0.00 0.00 31 1010.3
20260509224509 58 319 0.0 0.0 0.00 0.00 0.00 31 1010.2
20260509223006 58 304 0.0 0.0 0.00 0.00 0.00 30 1010.0
20260509221506 58 325 0.0 0.0 0.00 0.00 0.00 30 1009.9
20260509220002 58 290 0.0 0.0 0.00 0.00 0.00 32 1009.6
20260509214502 58 329 0.0 0.0 0.00 0.00 0.00 32 1009.6
20260509213101 58 302 0.0 0.0 0.00 0.00 0.00 32 1009.4
20260509211603 58 269 0.0 0.0 0.00 0.00 0.00 32 1009.5
20260509211501 58 261 0.0 0.0 0.00 0.00 0.00 32 1009.3
20260509210108 57 294 0.0 0.0 0.00 0.00 0.00 31 1009.4
20260509204601 58 327 0.0 0.0 0.00 0.00 0.00 32 1009.4
20260509203057 57 327 0.0 0.0 0.00 0.00 0.00 30 1009.3
20260509201556 57 332 0.0 0.0 0.00 0.00 0.00 32 1009.3
20260509200105 57 14 0.0 0.0 0.00 0.00 0.00 33 1009.0
20260509194548 57 295 0.0 0.0 0.00 0.00 0.00 34 1008.9
20260509193045 56 274 0.0 0.0 0.00 0.00 0.00 34 1008.9
20260509191544 56 267 0.0 0.0 0.00 0.00 0.00 33 1008.7
20260509190043 56 329 0.0 0.0 0.00 0.00 0.00 35 1008.5
20260509184554 56 228 0.0 0.0 0.00 0.00 0.00 37 1008.3
20260509183037 55 321 0.0 0.0 0.00 0.00 0.00 37 1008.4
20260509181538 55 302 0.0 0.0 0.00 0.00 0.00 37 1008.3
20260509180033 55 309 0.0 0.0 0.00 0.00 0.00 39 1008.2
20260509174503 55 13 0.0 0.0 0.00 0.00 0.00 41 1008.3
20260509173001 54 304 0.0 0.0 0.00 0.00 0.00 42 1008.1
20260509171533 54 289 0.0 0.0 0.00 0.00 0.00 42 1007.8
20260509170029 54 324 0.0 0.0 0.00 0.00 0.00 41 1007.8